Погода в Беное

Россия / Чеченская Республика     42°58′57″N   46°18′20″E
темп.,
°C
ветер,
м/с
пор.,
м/с
влажн.,
%
обл.,
%
осадки,
мм/ч
давл.,
гПа
погр.,
м
13 мая, чт
чт1300:00+11ююв22710 0.0 101418
03:00+11ю22605 0.0 101423
06:00+13ююв22595 0.0 101436
09:00+20с22462 0.0 1013463
12:00+23с33453 0.0 1013890
15:00+22с215316 0.1 1013650
18:00+18с117711 0.2 101480
21:00+15ю1181100 0.2 101512
14 мая, пт
пт1400:00+15ю2270100 0.0 101420
03:00+15ю32585 0.0 101425
06:00+16ю32537 0.0 101432
09:00+24ссв21370 0.0 1013579
12:00+26ссв33370 0.0 10131170
15:00+27с223616 0.0 10121238
18:00+21ююв465844 0.3 1012182
21:00+17ю44675 0.6 101364
15 мая, сб
сб1500:00+16ю43622 0.1 101343
03:00+15ю43560 0.1 101341
06:00+17ю33540 0.0 101340
09:00+24с21400 0.0 1013671
12:00+25с32450 0.1 10131211
15:00+25с32474 1.2 10121056
18:00+21ссз11680 1.0 101219
21:00+16ю327695 1.3 101433
16 мая, вс
вс1600:00+16ю337196 0.0 101335
03:00+15ю336540 0.0 101240
06:00+17ю33637 0.0 101160
09:00+24ссв22400 0.0 1009954
12:00+27с33360 0.0 10071580
15:00+28ссв33313 0.0 10051517
18:00+23зюз01570 0.0 100512
21:00+18ю43510 0.0 100747
17 мая, пн
пн1700:00+16ю44366 0.0 100755
03:00+15ю443322 0.0 100654
06:00+17ю334668 0.0 100650
09:00+24с113278 0.0 1005544
12:00+27ссв333119 0.0 10041025
15:00+27с33321 0.0 10031095
18:00+23сз116199 0.0 100415
21:00+17ююз337234 0.0 100945